Weather History for North Bend, OR

Change the Weather History Date:

Tuesday, August 27, 2013

  Actual Average Record
Temperature  
Mean Temperature 67 °F 59 °F  
Max Temperature 73 °F 66 °F 79 °F (1915)
Min Temperature 61 °F 52 °F 42 °F (1920)
Degree Days  
Heating Degree Days 0 6  
Month to date heating degree days 68 162  
Since 1 June heating degree days 333 626  
Since 1 July heating degree days 163 359  
Cooling Degree Days 2 0  
Month to date cooling degree days 3 0  
Year to date cooling degree days 7 0  
Since 1 June cooling degree days 3 0  
Growing Degree Days 16 (Base 50)    
Moisture  
Dew Point 60 °F    
Average Humidity 84    
Maximum Humidity 100    
Minimum Humidity 61    
Precipitation  
Precipitation 0.00 in 0.03 in 1.37 in (1954)
Month to date precipitation 0.25 0.50  
Year to date precipitation 17.74 37.12  
Sea Level Pressure  
Sea Level Pressure 29.90 in    
Wind  
Wind Speed 5 mph (WSW)    
Max Wind Speed 17 mph    
Max Gust Speed 18 mph    
Visibility 10 miles    
Events      
T = Trace of Precipitation, MM = Missing Value Source: NWS Daily Summary

Daily Weather History Graph

Daily Weather History Graph

Search for Another Location

Airport:

Trip Planner

Search our weather history database for the weather conditions in past years. The results will help you decide how hot, cold, wet, or windy it might be!

Date:

Astronomy

Aug. 27, 2013 Rise Set
Actual Time 6:35 AM PDT 8:00 PM PDT
Civil Twilight 6:05 AM PDT 8:29 PM PDT
Nautical Twilight 5:30 AM PDT 9:05 PM PDT
Astronomical Twilight 4:51 AM PDT 9:43 PM PDT
Moon 11:44 PM PDT (8/27) 1:52 PM PDT (8/27)
Length of Visible Light 14h 23m
Length of Day
13h 24m
Waning Gibbous, 56% of the Moon is Illuminated
Aug 27
Waning Gibbous
Aug 28
Last Quarter
Sep 5
New
Sep 12
First Quarter
Sep 19
Full

Hourly Weather History & Observations

Time (PDT) Temp. Dew Point Humidity Pressure Visibility Wind Dir Wind Speed Gust Speed Precip Events Conditions
12:15 AM 62.6 °F 59.0 °F 88% 29.97 in 10.0 mi SW 3.5 mph - N/A   Overcast
12:35 AM 64.4 °F 60.8 °F 88% 29.97 in 10.0 mi West 4.6 mph - N/A   Overcast
12:55 AM 64.4 °F 60.8 °F 88% 29.97 in 10.0 mi Calm Calm - N/A   Overcast
1:15 AM 62.6 °F 60.8 °F 94% 29.97 in 10.0 mi Calm Calm - N/A   Overcast
1:35 AM 64.4 °F 60.8 °F 88% 29.96 in 10.0 mi Calm Calm - N/A   Overcast
1:55 AM 64.4 °F 60.8 °F 88% 29.96 in 10.0 mi Calm Calm - N/A   Overcast
2:15 AM 64.4 °F 60.8 °F 88% 29.95 in 10.0 mi Calm Calm - N/A   Overcast
2:35 AM 60.8 °F 57.2 °F 88% 29.95 in 10.0 mi Calm Calm - N/A   Overcast
2:55 AM 60.8 °F 57.2 °F 88% 29.95 in 10.0 mi West 3.5 mph - N/A   Overcast
3:15 AM 60.8 °F 57.2 °F 88% 29.94 in 10.0 mi Calm Calm - N/A   Overcast
3:35 AM 60.8 °F 57.2 °F 88% 29.94 in 10.0 mi Calm Calm - N/A   Overcast
3:55 AM 60.8 °F 57.2 °F 88% 29.94 in 10.0 mi Calm Calm - N/A   Overcast
4:15 AM 62.6 °F 59.0 °F 88% 29.93 in 10.0 mi Calm Calm - N/A   Overcast
4:35 AM 62.6 °F 59.0 °F 88% 29.93 in 10.0 mi Calm Calm - N/A   Overcast
4:55 AM 62.6 °F 59.0 °F 88% 29.93 in 10.0 mi Calm Calm - N/A   Overcast
5:15 AM 62.6 °F 59.0 °F 88% 29.93 in 10.0 mi Calm Calm - N/A   Overcast
5:35 AM 62.6 °F 60.8 °F 94% 29.93 in 10.0 mi SE 3.5 mph - N/A   Overcast
5:55 AM 62.6 °F 60.8 °F 94% 29.92 in 10.0 mi Calm Calm - N/A   Overcast
6:15 AM 62.6 °F 59.0 °F 88% 29.93 in 10.0 mi SE 5.8 mph - N/A   Overcast
6:35 AM 60.8 °F 57.2 °F 88% 29.92 in 10.0 mi SE 6.9 mph - N/A   Overcast
6:55 AM 60.8 °F 57.2 °F 88% 29.93 in 10.0 mi SSE 4.6 mph - N/A   Mostly Cloudy
7:15 AM 60.8 °F 57.2 °F 88% 29.93 in 10.0 mi Calm Calm - N/A   Overcast
7:35 AM 60.8 °F 57.2 °F 88% 29.92 in 10.0 mi SE 8.1 mph - N/A   Overcast
7:55 AM 60.8 °F 57.2 °F 88% 29.92 in 10.0 mi SE 6.9 mph - N/A   Scattered Clouds
8:15 AM 62.6 °F 57.2 °F 82% 29.91 in 10.0 mi SE 4.6 mph - N/A   Clear
8:35 AM 62.6 °F 57.2 °F 82% 29.91 in 10.0 mi SE 6.9 mph - N/A   Clear
8:55 AM 64.4 °F 59.0 °F 83% 29.91 in 10.0 mi SSE 4.6 mph - N/A   Clear
9:15 AM 66.2 °F 59.0 °F 78% 29.90 in 10.0 mi SSE 4.6 mph - N/A   Clear
9:35 AM 68.0 °F 59.0 °F 73% 29.90 in 10.0 mi ESE 3.5 mph - N/A   Clear
9:55 AM 69.8 °F 59.0 °F 68% 29.90 in 10.0 mi SE 3.5 mph - N/A   Clear
10:15 AM 69.8 °F 59.0 °F 68% 29.90 in 10.0 mi Calm Calm - N/A   Clear
10:35 AM 69.8 °F 59.0 °F 68% 29.90 in 10.0 mi WNW 4.6 mph - N/A   Clear
10:55 AM 69.8 °F 60.8 °F 73% 29.90 in 10.0 mi West 10.4 mph - N/A   Clear
11:15 AM 69.8 °F 59.0 °F 68% 29.89 in 10.0 mi West 11.5 mph - N/A   Clear
11:35 AM 68.0 °F 59.0 °F 73% 29.89 in 10.0 mi West 11.5 mph - N/A   Clear
11:55 AM 69.8 °F 59.0 °F 68% 29.89 in 10.0 mi West 10.4 mph - N/A   Clear
12:15 PM 71.6 °F 59.0 °F 64% 29.88 in 10.0 mi West 9.2 mph - N/A   Clear
12:35 PM 73.4 °F 59.0 °F 61% 29.87 in 10.0 mi WNW 6.9 mph - N/A   Clear
12:55 PM 73.4 °F 59.0 °F 61% 29.87 in 10.0 mi West 15.0 mph - N/A   Clear
1:15 PM 71.6 °F 60.8 °F 69% 29.87 in 10.0 mi West 16.1 mph - N/A   Scattered Clouds
1:35 PM 69.8 °F 57.2 °F 64% 29.87 in 10.0 mi WSW 16.1 mph - N/A   Overcast
1:55 PM 66.2 °F 57.2 °F 73% 29.88 in 10.0 mi WSW 15.0 mph - N/A   Overcast
2:15 PM 69.8 °F 57.2 °F 64% 29.88 in 10.0 mi WSW 12.7 mph - N/A   Unknown
2:35 PM 69.8 °F 57.2 °F 64% 29.88 in 10.0 mi WSW 11.5 mph 18.4 mph N/A   Unknown
2:55 PM 69.8 °F 59.0 °F 68% 29.88 in 10.0 mi West 17.3 mph - N/A   Scattered Clouds
3:15 PM 66.2 °F 59.0 °F 78% 29.89 in 10.0 mi West 12.7 mph - N/A   Scattered Clouds
3:35 PM 68.0 °F 59.0 °F 73% 29.89 in 10.0 mi West 10.4 mph - N/A   Scattered Clouds
3:55 PM 66.2 °F 60.8 °F 83% 29.89 in 10.0 mi West 6.9 mph - N/A   Mostly Cloudy
4:15 PM 64.4 °F 60.8 °F 88% 29.89 in 10.0 mi West 9.2 mph - N/A   Mostly Cloudy
4:35 PM 64.4 °F 60.8 °F 88% 29.89 in 10.0 mi WNW 5.8 mph - N/A   Mostly Cloudy
4:55 PM 64.4 °F 60.8 °F 88% 29.89 in 10.0 mi WNW 5.8 mph - N/A   Overcast
5:15 PM 66.2 °F 60.8 °F 83% 29.88 in 10.0 mi WNW 5.8 mph - N/A   Overcast
5:35 PM 66.2 °F 62.6 °F 88% 29.88 in 10.0 mi West 4.6 mph - N/A   Mostly Cloudy
5:55 PM 64.4 °F 62.6 °F 94% 29.88 in 10.0 mi Calm Calm - N/A   Overcast
6:15 PM 66.2 °F 62.6 °F 88% 29.88 in 10.0 mi West 4.6 mph - N/A   Overcast
6:35 PM 66.2 °F 62.6 °F 88% 29.88 in 10.0 mi West 6.9 mph - N/A   Overcast
6:55 PM 62.6 °F 60.8 °F 94% 29.87 in 10.0 mi WNW 4.6 mph - N/A   Overcast
7:15 PM 62.6 °F 60.8 °F 94% 29.87 in 10.0 mi WNW 3.5 mph - N/A   Mostly Cloudy
7:35 PM 62.6 °F 60.8 °F 94% 29.87 in 10.0 mi Calm Calm - N/A   Mostly Cloudy
7:55 PM 64.4 °F 60.8 °F 88% 29.87 in 10.0 mi West 3.5 mph - N/A   Overcast
8:15 PM 62.6 °F 60.8 °F 94% 29.88 in 10.0 mi West 3.5 mph - N/A   Overcast
8:35 PM 62.6 °F 60.8 °F 94% 29.87 in 10.0 mi Calm Calm - N/A   Overcast
8:55 PM 64.4 °F 60.8 °F 88% 29.88 in 10.0 mi SSW 4.6 mph - N/A   Overcast
9:15 PM 64.4 °F 60.8 °F 88% 29.88 in 10.0 mi SSW 3.5 mph - N/A   Overcast
9:35 PM 64.4 °F 60.8 °F 88% 29.88 in 10.0 mi SSW 4.6 mph - N/A   Mostly Cloudy
9:55 PM 64.4 °F 60.8 °F 88% 29.88 in 10.0 mi South 3.5 mph - N/A   Scattered Clouds
10:15 PM 64.4 °F 60.8 °F 88% 29.87 in 10.0 mi Calm Calm - N/A   Mostly Cloudy
10:35 PM 64.4 °F 60.8 °F 88% 29.88 in 10.0 mi SSE 3.5 mph - N/A   Overcast
10:55 PM 64.4 °F 60.8 °F 88% 29.87 in 10.0 mi Calm Calm - N/A   Mostly Cloudy
11:15 PM 62.6 °F 62.6 °F 100% 29.87 in 10.0 mi ESE 3.5 mph - N/A   Mostly Cloudy
11:35 PM 62.6 °F 62.6 °F 100% 29.86 in 10.0 mi Calm Calm - N/A   Scattered Clouds
11:55 PM 62.6 °F 62.6 °F 100% 29.86 in 10.0 mi Calm Calm - N/A   Partly Cloudy